User: anonymous   Login
Location: Saint Peter Port
(49.4500°N, 2.5330°W)
Time: 18:54:14
(UTC+01:00)
Language:

Cosmos 2242 Rocket - Orbit

View from above orbital plane
View from above orbital plane
View from above satellite
View from above satellite

Ground track
Ground track

The orbit data is extracted from the following two-line orbital elements,

1 22627U 93024B   15146.86082580  .00000192  00000-0  23438-4 0  9997
2 22627 082.5235 078.6753 0022039 270.5012 145.5988 14.77900925191022
Epoch (UTC): 26 May 2015 20:39:35
Eccentricity: 0.0022039
inclination: 82.5235°
perigee height: 620 km
apogee height: 651 km
right ascension of ascending node: 78.6753°
argument of perigee: 270.5012°
revolutions per day: 14.77900925
mean anomaly at epoch: 145.5988°
orbit number at epoch: 19102

The dashed part of the orbit path shows where the satellite is in the earth's shadow,  

DLR